DW2465 Weather Reports


Display with metric or nautical units.
time (UTC)temp
F
wind
direction
speed
MPH
gust
MPH
rain 1hr
in
rain 24hr
in
rain mn
in
humidity
%
barometer
mb
20260505163050 45 311 0.0 0.0 0.00 0.00 0.00 42 1010.9
20260505161557 45 299 0.0 0.0 0.00 0.00 0.00 45 1010.8
20260505153054 43 288 0.0 0.0 0.00 0.00 0.00 46 1010.9
20260505151548 43 282 0.0 0.0 0.00 0.00 0.00 47 1010.8
20260505124553 38 360 0.0 0.0 0.00 0.00 0.00 57 1009.4
20260505123107 38 329 0.0 0.0 0.00 0.00 0.00 59 1009.4
20260505121546 38 346 0.0 0.0 0.00 0.00 0.00 63 1009.0
20260505120046 37 360 0.0 0.0 0.00 0.00 0.00 66 1008.7
20260505114604 36 281 0.0 0.0 0.00 0.00 0.00 68 1008.5
20260505113040 36 309 0.0 0.0 0.00 0.00 0.00 69 1008.2
20260505111553 36 313 0.0 0.0 0.00 0.00 0.00 69 1008.2
20260505101533 37 300 0.0 0.0 0.00 0.00 0.00 69 1007.9
20260505100030 37 311 0.0 0.0 0.00 0.00 0.00 68 1007.6
20260505094525 38 288 0.0 0.0 0.00 0.00 0.00 66 1007.6
20260505093053 38 292 0.0 0.0 0.00 0.00 0.00 66 1007.6
20260505091552 38 279 0.0 0.0 0.00 0.00 0.00 65 1007.3
20260505090054 38 299 0.0 0.0 0.00 0.00 0.00 64 1007.4
20260505084547 38 258 0.0 0.0 0.00 0.00 0.00 64 1007.2
20260505083058 39 277 0.0 0.0 0.00 0.00 0.00 63 1006.9
20260505081548 39 300 0.0 0.0 0.00 0.00 0.00 61 1006.7
20260505080041 39 281 0.0 0.0 0.00 0.00 0.00 61 1006.6
20260505074543 39 305 0.0 0.0 0.00 0.00 0.00 63 1006.6
20260505073036 39 284 0.0 0.0 0.00 0.00 0.00 63 1006.6
20260505071538 40 248 0.0 0.0 0.00 0.00 0.00 62 1006.6
20260505070005 40 281 0.0 0.0 0.00 0.00 0.00 60 1006.5
20260505064502 40 298 0.0 0.0 0.00 0.00 0.00 59 1006.6
20260505063100 40 288 0.0 0.0 0.00 0.00 0.00 59 1006.5
20260505061537 40 292 0.0 0.0 0.00 0.00 0.00 60 1006.6
20260505060029 41 276 0.0 0.0 0.00 0.00 0.00 59 1006.4
20260505054602 41 278 0.0 0.0 0.00 0.00 0.00 58 1006.3
20260505053108 42 279 0.0 0.0 0.00 0.00 0.00 57 1006.2
20260505051519 42 238 0.0 0.0 0.00 0.00 0.00 56 1006.0
20260505041517 43 259 0.0 0.0 0.00 0.00 0.00 55 1005.8
20260505040012 43 264 0.0 0.0 0.00 0.00 0.00 54 1005.8
20260505034506 43 272 0.0 0.0 0.00 0.00 0.00 54 1005.8
20260505033006 43 245 0.0 0.0 0.00 0.00 0.00 55 1005.6
20260505031504 44 253 0.0 0.0 0.00 0.00 0.00 54 1005.5
20260505030003 44 257 0.0 0.0 0.00 0.00 0.00 53 1005.6
20260505024559 44 265 0.0 0.0 0.00 0.00 0.00 50 1005.2
20260505023101 45 269 0.0 0.0 0.00 0.00 0.00 49 1005.0
20260505021554 45 268 0.0 0.0 0.00 0.00 0.00 49 1005.0
20260505020049 45 247 0.0 0.0 0.00 0.00 0.00 48 1004.7
20260505014518 46 271 0.0 0.0 0.00 0.00 0.00 46 1004.6
20260505013020 46 292 0.0 0.0 0.00 0.00 0.00 45 1004.4
20260505011509 47 307 0.0 0.0 0.00 0.00 0.00 43 1004.3
20260505010006 47 298 0.0 0.0 0.00 0.00 0.00 44 1004.1
20260505004504 48 263 0.0 0.0 0.00 0.00 0.00 44 1003.9
20260505003001 49 285 0.0 0.0 0.00 0.00 0.00 43 1003.7
20260505001535 49 300 0.0 0.0 0.00 0.00 0.00 43 1003.5
20260505000034 50 280 0.0 0.0 0.00 0.00 0.00 43 1003.3
20260504234617 51 307 0.0 0.0 0.00 0.00 0.00 41 1003.0
20260504233051 51 351 0.0 0.0 0.00 0.00 0.00 41 1002.6
20260504231527 51 295 0.0 0.0 0.00 0.00 0.00 40 1002.6
20260504230019 52 279 0.0 0.0 0.00 0.00 0.00 40 1002.4
20260504224517 52 297 0.0 0.0 0.00 0.00 0.00 40 1002.5
20260504223012 52 288 0.0 0.0 0.00 0.00 0.00 41 1002.1
20260504221509 53 360 0.0 0.0 0.00 0.00 0.00 42 1001.8
20260504220016 53 281 0.0 0.0 0.00 0.00 0.00 42 1001.4
20260504214503 53 279 0.0 0.0 0.00 0.00 0.00 42 1001.2
20260504213004 54 286 0.0 0.0 0.00 0.00 0.00 41 1000.9
20260504211600 54 297 0.0 0.0 0.00 0.00 0.00 40 1000.8
20260504210110 55 313 0.0 0.0 0.00 0.00 0.00 41 1000.6
20260504204602 54 302 0.0 0.0 0.00 0.00 0.00 41 1000.5
20260504203054 55 272 0.0 0.0 0.00 0.00 0.00 42 1000.4
20260504201554 56 338 0.0 0.0 0.00 0.00 0.00 41 1000.3
20260504200057 56 274 0.0 0.0 0.00 0.00 0.00 41 1000.1
20260504194536 57 272 0.0 0.0 0.00 0.00 0.00 40 1000.1
20260504193022 56 280 0.0 0.0 0.00 0.00 0.00 42 1000.0
20260504191519 56 330 0.0 0.0 0.00 0.00 0.00 43 999.6
20260504190020 57 282 0.0 0.0 0.00 0.00 0.00 41 999.5
20260504184518 57 250 0.0 0.0 0.00 0.00 0.00 42 999.4
20260504183017 57 300 0.0 0.0 0.00 0.00 0.00 42 999.1
20260504181516 57 269 0.0 0.0 0.00 0.00 0.00 41 998.8
20260504180018 57 266 0.0 0.0 0.00 0.00 0.00 40 998.6
20260504174514 58 269 0.0 0.0 0.00 0.00 0.00 39 998.4
20260504173018 58 288 0.0 0.0 0.00 0.00 0.00 38 998.3
20260504171614 58 232 0.0 0.0 0.00 0.00 0.00 40 998.2